Time,TemperatureF,DewpointF,PressureIn,WindDirection,WindDirectionDegrees,WindSpeedMPH,WindSpeedGustMPH,Humidity,HourlyPrecipIn,Conditions,Clouds,dailyrainin,SoftwareType,DateUTC
2013-08-12 00:03:00,59.5,54.1,30.02,North,-999,-999.0,-999.0,82,0.00,,,0.00,AD6XL-WX-0.1,2013-08-12 07:03:00,
2013-08-12 00:08:00,59.3,54.0,30.02,North,-999,-999.0,-999.0,82,0.00,,,0.00,AD6XL-WX-0.1,2013-08-12 07:08:00,
2013-08-12 00:13:00,59.1,54.0,30.02,North,-999,-999.0,-999.0,83,0.00,,,0.00,AD6XL-WX-0.1,2013-08-12 07:13:00,
2013-08-12 00:18:00,58.9,53.9,30.02,North,-999,-999.0,-999.0,83,0.00,,,0.00,AD6XL-WX-0.1,2013-08-12 07:18:00,
2013-08-12 00:23:00,58.8,53.9,30.02,North,-999,-999.0,-999.0,83,0.00,,,0.00,AD6XL-WX-0.1,2013-08-12 07:23:00,
2013-08-12 00:28:00,58.6,53.8,30.02,North,-999,-999.0,-999.0,83,0.00,,,0.00,AD6XL-WX-0.1,2013-08-12 07:28:00,
2013-08-12 00:33:00,58.4,53.7,30.02,North,-999,-999.0,-999.0,84,0.00,,,0.00,AD6XL-WX-0.1,2013-08-12 07:33:00,
2013-08-12 00:38:00,58.3,53.6,30.02,North,-999,-999.0,-999.0,84,0.00,,,0.00,AD6XL-WX-0.1,2013-08-12 07:38:00,
2013-08-12 00:43:00,58.1,53.4,30.02,North,-999,-999.0,-999.0,84,0.00,,,0.00,AD6XL-WX-0.1,2013-08-12 07:43:00,
2013-08-12 00:49:00,57.9,53.3,30.02,North,-999,-999.0,-999.0,84,0.00,,,0.00,AD6XL-WX-0.1,2013-08-12 07:49:00,
2013-08-12 00:54:00,57.8,53.4,30.02,North,-999,-999.0,-999.0,85,0.00,,,0.00,AD6XL-WX-0.1,2013-08-12 07:54:00,
2013-08-12 00:59:00,57.7,53.3,30.02,North,-999,-999.0,-999.0,85,0.00,,,0.00,AD6XL-WX-0.1,2013-08-12 07:59:00,
2013-08-12 01:04:00,57.7,53.4,30.02,North,-999,-999.0,-999.0,85,0.00,,,0.00,AD6XL-WX-0.1,2013-08-12 08:04:00,
2013-08-12 01:09:00,57.8,53.6,30.02,North,-999,-999.0,-999.0,85,0.00,,,0.00,AD6XL-WX-0.1,2013-08-12 08:09:00,
2013-08-12 01:14:00,58.0,53.7,30.02,North,-999,-999.0,-999.0,85,0.00,,,0.00,AD6XL-WX-0.1,2013-08-12 08:14:00,
2013-08-12 01:19:00,58.2,53.9,30.02,North,-999,-999.0,-999.0,85,0.00,,,0.00,AD6XL-WX-0.1,2013-08-12 08:19:00,
2013-08-12 01:24:00,58.4,54.1,30.02,North,-999,-999.0,-999.0,85,0.00,,,0.00,AD6XL-WX-0.1,2013-08-12 08:24:00,
2013-08-12 01:29:00,58.7,54.2,30.02,North,-999,-999.0,-999.0,85,0.00,,,0.00,AD6XL-WX-0.1,2013-08-12 08:29:00,
2013-08-12 01:34:00,58.8,54.3,30.02,North,-999,-999.0,-999.0,84,0.00,,,0.00,AD6XL-WX-0.1,2013-08-12 08:34:00,
2013-08-12 01:40:00,59.1,54.4,30.02,North,-999,-999.0,-999.0,84,0.00,,,0.00,AD6XL-WX-0.1,2013-08-12 08:40:00,
2013-08-12 01:45:00,59.3,54.5,30.02,North,-999,-999.0,-999.0,84,0.00,,,0.00,AD6XL-WX-0.1,2013-08-12 08:45:00,
2013-08-12 01:50:00,59.5,54.6,30.02,North,-999,-999.0,-999.0,83,0.00,,,0.00,AD6XL-WX-0.1,2013-08-12 08:50:00,
2013-08-12 01:55:00,59.7,54.7,30.02,North,-999,-999.0,-999.0,83,0.00,,,0.00,AD6XL-WX-0.1,2013-08-12 08:55:00,
2013-08-12 02:00:00,59.8,54.8,30.02,North,-999,-999.0,-999.0,83,0.00,,,0.00,AD6XL-WX-0.1,2013-08-12 09:00:00,
2013-08-12 02:05:00,59.9,54.9,30.02,North,-999,-999.0,-999.0,83,0.00,,,0.00,AD6XL-WX-0.1,2013-08-12 09:05:00,
2013-08-12 02:10:00,60.0,55.0,30.02,North,-999,-999.0,-999.0,83,0.00,,,0.00,AD6XL-WX-0.1,2013-08-12 09:10:00,
2013-08-12 02:15:00,60.0,55.1,30.02,North,-999,-999.0,-999.0,83,0.00,,,0.00,AD6XL-WX-0.1,2013-08-12 09:15:00,
2013-08-12 02:20:00,60.0,55.2,30.02,North,-999,-999.0,-999.0,83,0.00,,,0.00,AD6XL-WX-0.1,2013-08-12 09:20:00,
2013-08-12 02:25:00,60.1,55.2,30.02,North,-999,-999.0,-999.0,83,0.00,,,0.00,AD6XL-WX-0.1,2013-08-12 09:25:00,
2013-08-12 02:31:00,60.1,55.2,30.02,North,-999,-999.0,-999.0,83,0.00,,,0.00,AD6XL-WX-0.1,2013-08-12 09:31:00,
2013-08-12 02:36:00,60.3,55.2,30.02,North,-999,-999.0,-999.0,83,0.00,,,0.00,AD6XL-WX-0.1,2013-08-12 09:36:00,
2013-08-12 02:41:00,60.4,55.2,30.02,North,-999,-999.0,-999.0,82,0.00,,,0.00,AD6XL-WX-0.1,2013-08-12 09:41:00,
2013-08-12 02:46:00,60.5,55.2,30.02,North,-999,-999.0,-999.0,82,0.00,,,0.00,AD6XL-WX-0.1,2013-08-12 09:46:00,
2013-08-12 02:51:00,60.6,55.3,30.02,North,-999,-999.0,-999.0,82,0.00,,,0.00,AD6XL-WX-0.1,2013-08-12 09:51:00,
2013-08-12 02:56:00,60.6,55.2,30.02,North,-999,-999.0,-999.0,82,0.00,,,0.00,AD6XL-WX-0.1,2013-08-12 09:56:00,
2013-08-12 03:01:00,60.7,55.2,30.02,North,-999,-999.0,-999.0,82,0.00,,,0.00,AD6XL-WX-0.1,2013-08-12 10:01:00,
2013-08-12 03:06:00,60.9,55.3,30.02,North,-999,-999.0,-999.0,81,0.00,,,0.00,AD6XL-WX-0.1,2013-08-12 10:06:00,
2013-08-12 03:11:00,61.0,55.3,30.02,North,-999,-999.0,-999.0,81,0.00,,,0.00,AD6XL-WX-0.1,2013-08-12 10:11:00,
2013-08-12 03:16:00,61.0,55.3,30.02,North,-999,-999.0,-999.0,81,0.00,,,0.00,AD6XL-WX-0.1,2013-08-12 10:16:00,
2013-08-12 03:21:00,61.1,55.4,30.02,North,-999,-999.0,-999.0,81,0.00,,,0.00,AD6XL-WX-0.1,2013-08-12 10:21:00,
2013-08-12 03:27:00,61.1,55.5,30.02,North,-999,-999.0,-999.0,81,0.00,,,0.00,AD6XL-WX-0.1,2013-08-12 10:27:00,
2013-08-12 03:32:00,61.2,55.4,30.02,North,-999,-999.0,-999.0,81,0.00,,,0.00,AD6XL-WX-0.1,2013-08-12 10:32:00,
2013-08-12 03:37:00,61.2,55.4,30.02,North,-999,-999.0,-999.0,81,0.00,,,0.00,AD6XL-WX-0.1,2013-08-12 10:37:00,
2013-08-12 03:42:00,61.2,55.4,30.02,North,-999,-999.0,-999.0,81,0.00,,,0.00,AD6XL-WX-0.1,2013-08-12 10:42:00,
2013-08-12 03:47:00,61.2,55.4,30.02,North,-999,-999.0,-999.0,81,0.00,,,0.00,AD6XL-WX-0.1,2013-08-12 10:47:00,
2013-08-12 03:52:00,61.2,55.3,30.02,North,-999,-999.0,-999.0,81,0.00,,,0.00,AD6XL-WX-0.1,2013-08-12 10:52:00,
2013-08-12 03:57:00,61.2,55.2,30.02,North,-999,-999.0,-999.0,80,0.00,,,0.00,AD6XL-WX-0.1,2013-08-12 10:57:00,
2013-08-12 04:02:00,61.2,55.2,30.02,North,-999,-999.0,-999.0,80,0.00,,,0.00,AD6XL-WX-0.1,2013-08-12 11:02:00,
2013-08-12 04:07:00,61.2,55.2,30.02,North,-999,-999.0,-999.0,80,0.00,,,0.00,AD6XL-WX-0.1,2013-08-12 11:07:00,
2013-08-12 04:12:00,61.2,55.2,30.02,North,-999,-999.0,-999.0,80,0.00,,,0.00,AD6XL-WX-0.1,2013-08-12 11:12:00,
2013-08-12 04:18:00,61.3,55.2,30.02,North,-999,-999.0,-999.0,80,0.00,,,0.00,AD6XL-WX-0.1,2013-08-12 11:18:00,
2013-08-12 04:23:00,61.3,55.3,30.02,North,-999,-999.0,-999.0,80,0.00,,,0.00,AD6XL-WX-0.1,2013-08-12 11:23:00,
2013-08-12 04:28:00,61.3,55.3,30.02,North,-999,-999.0,-999.0,80,0.00,,,0.00,AD6XL-WX-0.1,2013-08-12 11:28:00,
2013-08-12 04:33:00,61.3,55.3,30.02,North,-999,-999.0,-999.0,80,0.00,,,0.00,AD6XL-WX-0.1,2013-08-12 11:33:00,
2013-08-12 04:38:00,61.3,55.3,30.02,North,-999,-999.0,-999.0,80,0.00,,,0.00,AD6XL-WX-0.1,2013-08-12 11:38:00,
2013-08-12 04:43:00,61.4,55.3,30.02,North,-999,-999.0,-999.0,80,0.00,,,0.00,AD6XL-WX-0.1,2013-08-12 11:43:00,
2013-08-12 04:48:00,61.5,55.4,30.02,North,-999,-999.0,-999.0,80,0.00,,,0.00,AD6XL-WX-0.1,2013-08-12 11:48:00,
2013-08-12 04:53:00,61.4,55.4,30.02,North,-999,-999.0,-999.0,80,0.00,,,0.00,AD6XL-WX-0.1,2013-08-12 11:53:00,
2013-08-12 04:58:00,61.4,55.4,30.02,North,-999,-999.0,-999.0,80,0.00,,,0.00,AD6XL-WX-0.1,2013-08-12 11:58:00,
2013-08-12 05:03:00,61.5,55.4,30.02,North,-999,-999.0,-999.0,80,0.00,,,0.00,AD6XL-WX-0.1,2013-08-12 12:03:00,
2013-08-12 05:09:00,61.5,55.5,30.02,North,-999,-999.0,-999.0,80,0.00,,,0.00,AD6XL-WX-0.1,2013-08-12 12:09:00,
2013-08-12 05:14:00,61.5,55.5,30.02,North,-999,-999.0,-999.0,80,0.00,,,0.00,AD6XL-WX-0.1,2013-08-12 12:14:00,
2013-08-12 05:19:00,61.5,55.5,30.02,North,-999,-999.0,-999.0,80,0.00,,,0.00,AD6XL-WX-0.1,2013-08-12 12:19:00,
2013-08-12 05:24:00,61.5,55.5,30.02,North,-999,-999.0,-999.0,80,0.00,,,0.00,AD6XL-WX-0.1,2013-08-12 12:24:00,
2013-08-12 05:29:00,61.5,55.5,30.02,North,-999,-999.0,-999.0,80,0.00,,,0.00,AD6XL-WX-0.1,2013-08-12 12:29:00,
2013-08-12 05:34:00,61.6,55.4,30.02,North,-999,-999.0,-999.0,80,0.00,,,0.00,AD6XL-WX-0.1,2013-08-12 12:34:00,
2013-08-12 05:39:00,61.7,55.4,30.02,North,-999,-999.0,-999.0,79,0.00,,,0.00,AD6XL-WX-0.1,2013-08-12 12:39:00,
2013-08-12 05:44:00,61.7,55.4,30.02,North,-999,-999.0,-999.0,79,0.00,,,0.00,AD6XL-WX-0.1,2013-08-12 12:44:00,
2013-08-12 05:49:00,61.8,55.4,30.02,North,-999,-999.0,-999.0,79,0.00,,,0.00,AD6XL-WX-0.1,2013-08-12 12:49:00,
2013-08-12 05:54:00,61.8,55.5,30.02,North,-999,-999.0,-999.0,79,0.00,,,0.00,AD6XL-WX-0.1,2013-08-12 12:54:00,
2013-08-12 06:00:00,61.7,55.4,30.02,North,-999,-999.0,-999.0,79,0.00,,,0.00,AD6XL-WX-0.1,2013-08-12 13:00:00,
2013-08-12 06:05:00,61.6,55.4,30.02,North,-999,-999.0,-999.0,80,0.00,,,0.00,AD6XL-WX-0.1,2013-08-12 13:05:00,
2013-08-12 06:10:00,61.5,55.7,30.02,North,-999,-999.0,-999.0,81,0.00,,,0.00,AD6XL-WX-0.1,2013-08-12 13:10:00,
2013-08-12 06:15:00,61.5,55.9,30.02,North,-999,-999.0,-999.0,81,0.00,,,0.00,AD6XL-WX-0.1,2013-08-12 13:15:00,
2013-08-12 06:20:00,61.5,55.9,30.03,North,-999,-999.0,-999.0,82,0.00,,,0.00,AD6XL-WX-0.1,2013-08-12 13:20:00,
2013-08-12 06:25:00,61.4,55.9,30.03,North,-999,-999.0,-999.0,82,0.00,,,0.00,AD6XL-WX-0.1,2013-08-12 13:25:00,
2013-08-12 06:30:00,61.3,55.9,30.03,North,-999,-999.0,-999.0,82,0.00,,,0.00,AD6XL-WX-0.1,2013-08-12 13:30:00,
2013-08-12 06:35:00,61.3,55.8,30.03,North,-999,-999.0,-999.0,82,0.00,,,0.00,AD6XL-WX-0.1,2013-08-12 13:35:00,
2013-08-12 06:40:00,61.3,55.9,30.03,North,-999,-999.0,-999.0,82,0.00,,,0.00,AD6XL-WX-0.1,2013-08-12 13:40:00,
2013-08-12 06:45:00,61.3,55.9,30.03,North,-999,-999.0,-999.0,82,0.00,,,0.00,AD6XL-WX-0.1,2013-08-12 13:45:00,
2013-08-12 06:50:00,61.2,55.9,30.03,North,-999,-999.0,-999.0,82,0.00,,,0.00,AD6XL-WX-0.1,2013-08-12 13:50:00,
2013-08-12 06:56:00,61.2,55.9,30.03,North,-999,-999.0,-999.0,82,0.00,,,0.00,AD6XL-WX-0.1,2013-08-12 13:56:00,
2013-08-12 07:01:00,61.2,55.9,30.03,North,-999,-999.0,-999.0,82,0.00,,,0.00,AD6XL-WX-0.1,2013-08-12 14:01:00,
2013-08-12 07:06:00,61.3,56.1,30.03,North,-999,-999.0,-999.0,82,0.00,,,0.00,AD6XL-WX-0.1,2013-08-12 14:06:00,
2013-08-12 07:11:00,61.3,56.2,30.03,North,-999,-999.0,-999.0,83,0.00,,,0.00,AD6XL-WX-0.1,2013-08-12 14:11:00,
2013-08-12 07:16:00,61.3,56.2,30.04,North,-999,-999.0,-999.0,83,0.00,,,0.00,AD6XL-WX-0.1,2013-08-12 14:16:00,
2013-08-12 07:21:00,61.2,56.2,30.04,North,-999,-999.0,-999.0,83,0.00,,,0.00,AD6XL-WX-0.1,2013-08-12 14:21:00,
2013-08-12 07:26:00,61.2,56.2,30.04,North,-999,-999.0,-999.0,83,0.00,,,0.00,AD6XL-WX-0.1,2013-08-12 14:26:00,
2013-08-12 07:31:00,61.2,56.2,30.04,North,-999,-999.0,-999.0,83,0.00,,,0.00,AD6XL-WX-0.1,2013-08-12 14:31:00,
2013-08-12 07:36:00,61.2,56.3,30.05,North,-999,-999.0,-999.0,84,0.00,,,0.00,AD6XL-WX-0.1,2013-08-12 14:36:00,
2013-08-12 07:41:00,61.2,56.4,30.05,North,-999,-999.0,-999.0,84,0.00,,,0.00,AD6XL-WX-0.1,2013-08-12 14:41:00,
2013-08-12 07:47:00,61.2,56.5,30.05,North,-999,-999.0,-999.0,84,0.00,,,0.00,AD6XL-WX-0.1,2013-08-12 14:47:00,
2013-08-12 07:52:00,61.2,56.4,30.05,North,-999,-999.0,-999.0,84,0.00,,,0.00,AD6XL-WX-0.1,2013-08-12 14:52:00,
2013-08-12 07:57:00,61.4,56.5,30.05,North,-999,-999.0,-999.0,83,0.00,,,0.00,AD6XL-WX-0.1,2013-08-12 14:57:00,
2013-08-12 08:02:00,61.5,56.6,30.05,North,-999,-999.0,-999.0,83,0.00,,,0.00,AD6XL-WX-0.1,2013-08-12 15:02:00,
2013-08-12 08:07:00,61.7,56.7,30.05,North,-999,-999.0,-999.0,83,0.00,,,0.00,AD6XL-WX-0.1,2013-08-12 15:07:00,
2013-08-12 08:12:00,61.9,56.7,30.05,North,-999,-999.0,-999.0,83,0.00,,,0.00,AD6XL-WX-0.1,2013-08-12 15:12:00,
2013-08-12 08:17:00,62.1,56.7,30.05,North,-999,-999.0,-999.0,82,0.00,,,0.00,AD6XL-WX-0.1,2013-08-12 15:17:00,
2013-08-12 08:22:00,62.3,56.9,30.05,North,-999,-999.0,-999.0,82,0.00,,,0.00,AD6XL-WX-0.1,2013-08-12 15:22:00,
2013-08-12 08:27:00,62.4,57.1,30.05,North,-999,-999.0,-999.0,82,0.00,,,0.00,AD6XL-WX-0.1,2013-08-12 15:27:00,
2013-08-12 08:32:00,62.4,57.1,30.05,North,-999,-999.0,-999.0,82,0.00,,,0.00,AD6XL-WX-0.1,2013-08-12 15:32:00,
2013-08-12 08:38:00,62.4,57.1,30.05,North,-999,-999.0,-999.0,82,0.00,,,0.00,AD6XL-WX-0.1,2013-08-12 15:38:00,
2013-08-12 08:43:00,62.4,57.1,30.05,North,-999,-999.0,-999.0,82,0.00,,,0.00,AD6XL-WX-0.1,2013-08-12 15:43:00,
2013-08-12 08:48:00,62.5,57.1,30.05,North,-999,-999.0,-999.0,82,0.00,,,0.00,AD6XL-WX-0.1,2013-08-12 15:48:00,
2013-08-12 08:53:00,62.8,57.2,30.05,North,-999,-999.0,-999.0,82,0.00,,,0.00,AD6XL-WX-0.1,2013-08-12 15:53:00,
2013-08-12 08:58:00,63.0,57.1,30.05,North,-999,-999.0,-999.0,81,0.00,,,0.00,AD6XL-WX-0.1,2013-08-12 15:58:00,
2013-08-12 09:03:00,63.2,57.1,30.06,North,-999,-999.0,-999.0,80,0.00,,,0.00,AD6XL-WX-0.1,2013-08-12 16:03:00,
2013-08-12 09:08:00,63.4,57.3,30.06,North,-999,-999.0,-999.0,80,0.00,,,0.00,AD6XL-WX-0.1,2013-08-12 16:08:00,
2013-08-12 09:13:00,63.7,57.4,30.05,North,-999,-999.0,-999.0,79,0.00,,,0.00,AD6XL-WX-0.1,2013-08-12 16:13:00,
2013-08-12 09:18:00,63.9,57.3,30.05,North,-999,-999.0,-999.0,79,0.00,,,0.00,AD6XL-WX-0.1,2013-08-12 16:18:00,
2013-08-12 09:23:00,64.3,57.4,30.05,North,-999,-999.0,-999.0,78,0.00,,,0.00,AD6XL-WX-0.1,2013-08-12 16:23:00,
2013-08-12 09:28:00,64.7,57.6,30.05,North,-999,-999.0,-999.0,77,0.00,,,0.00,AD6XL-WX-0.1,2013-08-12 16:28:00,
2013-08-12 09:34:00,65.0,57.6,30.05,North,-999,-999.0,-999.0,76,0.00,,,0.00,AD6XL-WX-0.1,2013-08-12 16:34:00,
2013-08-12 09:39:00,65.3,57.8,30.05,North,-999,-999.0,-999.0,76,0.00,,,0.00,AD6XL-WX-0.1,2013-08-12 16:39:00,
2013-08-12 09:44:00,65.7,58.0,30.05,North,-999,-999.0,-999.0,76,0.00,,,0.00,AD6XL-WX-0.1,2013-08-12 16:44:00,
2013-08-12 09:49:00,66.0,58.1,30.06,North,-999,-999.0,-999.0,75,0.00,,,0.00,AD6XL-WX-0.1,2013-08-12 16:49:00,
2013-08-12 09:54:00,66.0,57.9,30.06,North,-999,-999.0,-999.0,75,0.00,,,0.00,AD6XL-WX-0.1,2013-08-12 16:54:00,
2013-08-12 09:59:00,66.1,57.8,30.06,North,-999,-999.0,-999.0,74,0.00,,,0.00,AD6XL-WX-0.1,2013-08-12 16:59:00,
2013-08-12 10:04:00,66.3,57.9,30.06,North,-999,-999.0,-999.0,74,0.00,,,0.00,AD6XL-WX-0.1,2013-08-12 17:04:00,
2013-08-12 10:09:00,66.3,57.9,30.06,North,-999,-999.0,-999.0,74,0.00,,,0.00,AD6XL-WX-0.1,2013-08-12 17:09:00,
2013-08-12 10:14:00,66.1,57.7,30.06,North,-999,-999.0,-999.0,74,0.00,,,0.00,AD6XL-WX-0.1,2013-08-12 17:14:00,
2013-08-12 10:19:00,66.0,57.6,30.06,North,-999,-999.0,-999.0,74,0.00,,,0.00,AD6XL-WX-0.1,2013-08-12 17:19:00,
2013-08-12 10:25:00,66.0,57.6,30.06,North,-999,-999.0,-999.0,74,0.00,,,0.00,AD6XL-WX-0.1,2013-08-12 17:25:00,
2013-08-12 10:30:00,66.2,57.6,30.06,North,-999,-999.0,-999.0,73,0.00,,,0.00,AD6XL-WX-0.1,2013-08-12 17:30:00,
2013-08-12 10:35:00,66.4,57.7,30.06,North,-999,-999.0,-999.0,73,0.00,,,0.00,AD6XL-WX-0.1,2013-08-12 17:35:00,
2013-08-12 10:40:00,66.4,57.7,30.06,North,-999,-999.0,-999.0,73,0.00,,,0.00,AD6XL-WX-0.1,2013-08-12 17:40:00,
2013-08-12 10:45:00,66.5,57.9,30.06,North,-999,-999.0,-999.0,73,0.00,,,0.00,AD6XL-WX-0.1,2013-08-12 17:45:00,
2013-08-12 10:50:00,66.7,57.9,30.06,North,-999,-999.0,-999.0,73,0.00,,,0.00,AD6XL-WX-0.1,2013-08-12 17:50:00,
2013-08-12 10:55:00,67.0,58.1,30.06,North,-999,-999.0,-999.0,72,0.00,,,0.00,AD6XL-WX-0.1,2013-08-12 17:55:00,
2013-08-12 11:00:00,67.4,58.1,30.06,North,-999,-999.0,-999.0,72,0.00,,,0.00,AD6XL-WX-0.1,2013-08-12 18:00:00,
2013-08-12 11:05:00,67.9,58.3,30.06,North,-999,-999.0,-999.0,71,0.00,,,0.00,AD6XL-WX-0.1,2013-08-12 18:05:00,
2013-08-12 11:10:00,68.3,58.2,30.06,North,-999,-999.0,-999.0,70,0.00,,,0.00,AD6XL-WX-0.1,2013-08-12 18:10:00,
2013-08-12 11:16:00,68.6,58.1,30.06,North,-999,-999.0,-999.0,69,0.00,,,0.00,AD6XL-WX-0.1,2013-08-12 18:16:00,
2013-08-12 11:21:00,68.9,58.2,30.06,North,-999,-999.0,-999.0,68,0.00,,,0.00,AD6XL-WX-0.1,2013-08-12 18:21:00,
2013-08-12 11:26:00,69.2,58.1,30.06,North,-999,-999.0,-999.0,67,0.00,,,0.00,AD6XL-WX-0.1,2013-08-12 18:26:00,
2013-08-12 11:31:00,69.3,58.0,30.06,North,-999,-999.0,-999.0,67,0.00,,,0.00,AD6XL-WX-0.1,2013-08-12 18:31:00,
2013-08-12 11:36:00,69.6,58.1,30.06,North,-999,-999.0,-999.0,67,0.00,,,0.00,AD6XL-WX-0.1,2013-08-12 18:36:00,
2013-08-12 11:41:00,69.9,58.3,30.06,North,-999,-999.0,-999.0,66,0.00,,,0.00,AD6XL-WX-0.1,2013-08-12 18:41:00,
2013-08-12 11:46:00,70.4,58.3,30.06,North,-999,-999.0,-999.0,65,0.00,,,0.00,AD6XL-WX-0.1,2013-08-12 18:46:00,
2013-08-12 11:51:00,70.8,58.3,30.06,North,-999,-999.0,-999.0,64,0.00,,,0.00,AD6XL-WX-0.1,2013-08-12 18:51:00,
2013-08-12 11:56:00,71.1,58.3,30.05,North,-999,-999.0,-999.0,63,0.00,,,0.00,AD6XL-WX-0.1,2013-08-12 18:56:00,
2013-08-12 12:01:00,71.6,58.3,30.05,North,-999,-999.0,-999.0,63,0.00,,,0.00,AD6XL-WX-0.1,2013-08-12 19:01:00,
2013-08-12 12:06:00,71.7,58.2,30.05,North,-999,-999.0,-999.0,62,0.00,,,0.00,AD6XL-WX-0.1,2013-08-12 19:06:00,
2013-08-12 12:12:00,71.8,58.2,30.05,North,-999,-999.0,-999.0,62,0.00,,,0.00,AD6XL-WX-0.1,2013-08-12 19:12:00,
2013-08-12 12:17:00,72.1,58.0,30.05,North,-999,-999.0,-999.0,61,0.00,,,0.00,AD6XL-WX-0.1,2013-08-12 19:17:00,
2013-08-12 12:22:00,72.4,58.2,30.05,North,-999,-999.0,-999.0,60,0.00,,,0.00,AD6XL-WX-0.1,2013-08-12 19:22:00,
2013-08-12 12:27:00,72.8,58.3,30.05,North,-999,-999.0,-999.0,60,0.00,,,0.00,AD6XL-WX-0.1,2013-08-12 19:27:00,
2013-08-12 12:32:00,73.2,58.3,30.05,North,-999,-999.0,-999.0,59,0.00,,,0.00,AD6XL-WX-0.1,2013-08-12 19:32:00,
2013-08-12 12:37:00,73.5,58.1,30.05,North,-999,-999.0,-999.0,58,0.00,,,0.00,AD6XL-WX-0.1,2013-08-12 19:37:00,
2013-08-12 12:42:00,73.8,58.1,30.05,North,-999,-999.0,-999.0,58,0.00,,,0.00,AD6XL-WX-0.1,2013-08-12 19:42:00,
2013-08-12 12:47:00,73.9,57.9,30.05,North,-999,-999.0,-999.0,57,0.00,,,0.00,AD6XL-WX-0.1,2013-08-12 19:47:00,
2013-08-12 12:52:00,73.7,57.9,30.05,North,-999,-999.0,-999.0,57,0.00,,,0.00,AD6XL-WX-0.1,2013-08-12 19:52:00,
2013-08-12 12:57:00,73.5,58.0,30.05,North,-999,-999.0,-999.0,58,0.00,,,0.00,AD6XL-WX-0.1,2013-08-12 19:57:00,
2013-08-12 13:03:00,73.4,58.1,30.04,North,-999,-999.0,-999.0,58,0.00,,,0.00,AD6XL-WX-0.1,2013-08-12 20:03:00,
2013-08-12 13:08:00,73.6,58.2,30.04,North,-999,-999.0,-999.0,58,0.00,,,0.00,AD6XL-WX-0.1,2013-08-12 20:08:00,
2013-08-12 13:13:00,73.7,58.1,30.04,North,-999,-999.0,-999.0,58,0.00,,,0.00,AD6XL-WX-0.1,2013-08-12 20:13:00,
2013-08-12 13:18:00,73.8,58.1,30.04,North,-999,-999.0,-999.0,58,0.00,,,0.00,AD6XL-WX-0.1,2013-08-12 20:18:00,
2013-08-12 13:23:00,74.0,58.3,30.04,North,-999,-999.0,-999.0,57,0.00,,,0.00,AD6XL-WX-0.1,2013-08-12 20:23:00,
2013-08-12 13:28:00,74.4,58.5,30.04,North,-999,-999.0,-999.0,57,0.00,,,0.00,AD6XL-WX-0.1,2013-08-12 20:28:00,
2013-08-12 13:33:00,74.7,58.5,30.04,North,-999,-999.0,-999.0,57,0.00,,,0.00,AD6XL-WX-0.1,2013-08-12 20:33:00,
2013-08-12 13:38:00,74.9,58.3,30.04,North,-999,-999.0,-999.0,56,0.00,,,0.00,AD6XL-WX-0.1,2013-08-12 20:38:00,
2013-08-12 13:43:00,75.0,58.3,30.04,North,-999,-999.0,-999.0,56,0.00,,,0.00,AD6XL-WX-0.1,2013-08-12 20:43:00,
2013-08-12 13:48:00,74.7,58.1,30.04,North,-999,-999.0,-999.0,56,0.00,,,0.00,AD6XL-WX-0.1,2013-08-12 20:48:00,
2013-08-12 13:54:00,74.5,58.2,30.04,North,-999,-999.0,-999.0,56,0.00,,,0.00,AD6XL-WX-0.1,2013-08-12 20:54:00,
2013-08-12 13:59:00,74.0,57.9,30.04,North,-999,-999.0,-999.0,57,0.00,,,0.00,AD6XL-WX-0.1,2013-08-12 20:59:00,
2013-08-12 14:04:00,73.6,57.9,30.04,North,-999,-999.0,-999.0,57,0.00,,,0.00,AD6XL-WX-0.1,2013-08-12 21:04:00,
2013-08-12 14:09:00,73.6,57.8,30.04,North,-999,-999.0,-999.0,57,0.00,,,0.00,AD6XL-WX-0.1,2013-08-12 21:09:00,
2013-08-12 14:14:00,73.6,57.7,30.04,North,-999,-999.0,-999.0,57,0.00,,,0.00,AD6XL-WX-0.1,2013-08-12 21:14:00,
2013-08-12 14:19:00,73.7,57.6,30.04,North,-999,-999.0,-999.0,57,0.00,,,0.00,AD6XL-WX-0.1,2013-08-12 21:19:00,
2013-08-12 14:24:00,73.8,57.7,30.04,North,-999,-999.0,-999.0,57,0.00,,,0.00,AD6XL-WX-0.1,2013-08-12 21:24:00,
2013-08-12 14:29:00,74.1,57.9,30.04,North,-999,-999.0,-999.0,56,0.00,,,0.00,AD6XL-WX-0.1,2013-08-12 21:29:00,
2013-08-12 14:34:00,74.4,57.9,30.04,North,-999,-999.0,-999.0,56,0.00,,,0.00,AD6XL-WX-0.1,2013-08-12 21:34:00,
2013-08-12 14:39:00,74.5,58.1,30.04,North,-999,-999.0,-999.0,56,0.00,,,0.00,AD6XL-WX-0.1,2013-08-12 21:39:00,
2013-08-12 14:44:00,74.9,58.3,30.04,North,-999,-999.0,-999.0,56,0.00,,,0.00,AD6XL-WX-0.1,2013-08-12 21:44:00,
2013-08-12 14:50:00,75.2,57.9,30.04,North,-999,-999.0,-999.0,55,0.00,,,0.00,AD6XL-WX-0.1,2013-08-12 21:50:00,
2013-08-12 14:55:00,75.3,57.7,30.04,North,-999,-999.0,-999.0,54,0.00,,,0.00,AD6XL-WX-0.1,2013-08-12 21:55:00,
2013-08-12 15:00:00,75.6,57.7,30.04,North,-999,-999.0,-999.0,54,0.00,,,0.00,AD6XL-WX-0.1,2013-08-12 22:00:00,
2013-08-12 15:05:00,75.9,57.8,30.04,North,-999,-999.0,-999.0,53,0.00,,,0.00,AD6XL-WX-0.1,2013-08-12 22:05:00,
2013-08-12 15:10:00,76.4,57.8,30.04,North,-999,-999.0,-999.0,52,0.00,,,0.00,AD6XL-WX-0.1,2013-08-12 22:10:00,
2013-08-12 15:15:00,76.7,57.9,30.04,North,-999,-999.0,-999.0,52,0.00,,,0.00,AD6XL-WX-0.1,2013-08-12 22:15:00,
2013-08-12 15:20:00,77.1,58.3,30.03,North,-999,-999.0,-999.0,52,0.00,,,0.00,AD6XL-WX-0.1,2013-08-12 22:20:00,
2013-08-12 15:25:00,77.4,58.7,30.03,North,-999,-999.0,-999.0,52,0.00,,,0.00,AD6XL-WX-0.1,2013-08-12 22:25:00,
2013-08-12 15:31:00,77.7,58.8,30.03,North,-999,-999.0,-999.0,52,0.00,,,0.00,AD6XL-WX-0.1,2013-08-12 22:31:00,
2013-08-12 15:36:00,77.5,58.4,30.03,North,-999,-999.0,-999.0,51,0.00,,,0.00,AD6XL-WX-0.1,2013-08-12 22:36:00,
2013-08-12 15:41:00,77.7,58.7,30.03,North,-999,-999.0,-999.0,52,0.00,,,0.00,AD6XL-WX-0.1,2013-08-12 22:41:00,
2013-08-12 15:46:00,77.7,58.2,30.02,North,-999,-999.0,-999.0,51,0.00,,,0.00,AD6XL-WX-0.1,2013-08-12 22:46:00,
2013-08-12 15:51:00,77.5,58.0,30.02,North,-999,-999.0,-999.0,51,0.00,,,0.00,AD6XL-WX-0.1,2013-08-12 22:51:00,
2013-08-12 15:56:00,77.4,58.1,30.02,North,-999,-999.0,-999.0,51,0.00,,,0.00,AD6XL-WX-0.1,2013-08-12 22:56:00,
2013-08-12 16:01:00,77.6,58.4,30.02,North,-999,-999.0,-999.0,51,0.00,,,0.00,AD6XL-WX-0.1,2013-08-12 23:01:00,
2013-08-12 16:06:00,77.7,58.5,30.02,North,-999,-999.0,-999.0,51,0.00,,,0.00,AD6XL-WX-0.1,2013-08-12 23:06:00,
2013-08-12 16:11:00,77.8,58.4,30.02,North,-999,-999.0,-999.0,51,0.00,,,0.00,AD6XL-WX-0.1,2013-08-12 23:11:00,
2013-08-12 16:16:00,78.1,58.4,30.02,North,-999,-999.0,-999.0,51,0.00,,,0.00,AD6XL-WX-0.1,2013-08-12 23:16:00,
2013-08-12 16:21:00,78.2,58.0,30.02,North,-999,-999.0,-999.0,49,0.00,,,0.00,AD6XL-WX-0.1,2013-08-12 23:21:00,
2013-08-12 16:27:00,78.2,57.6,30.02,North,-999,-999.0,-999.0,49,0.00,,,0.00,AD6XL-WX-0.1,2013-08-12 23:27:00,
2013-08-12 16:32:00,78.0,57.4,30.01,North,-999,-999.0,-999.0,49,0.00,,,0.00,AD6XL-WX-0.1,2013-08-12 23:32:00,
2013-08-12 16:37:00,77.8,57.5,30.01,North,-999,-999.0,-999.0,49,0.00,,,0.00,AD6XL-WX-0.1,2013-08-12 23:37:00,
2013-08-12 16:42:00,77.9,57.7,30.01,North,-999,-999.0,-999.0,49,0.00,,,0.00,AD6XL-WX-0.1,2013-08-12 23:42:00,
2013-08-12 16:47:00,78.2,57.6,30.01,North,-999,-999.0,-999.0,49,0.00,,,0.00,AD6XL-WX-0.1,2013-08-12 23:47:00,
2013-08-12 16:52:00,78.3,57.4,30.00,North,-999,-999.0,-999.0,48,0.00,,,0.00,AD6XL-WX-0.1,2013-08-12 23:52:00,
2013-08-12 16:57:00,78.6,57.6,30.00,North,-999,-999.0,-999.0,48,0.00,,,0.00,AD6XL-WX-0.1,2013-08-12 23:57:00,
2013-08-12 17:02:00,78.7,57.6,30.00,North,-999,-999.0,-999.0,48,0.00,,,0.00,AD6XL-WX-0.1,2013-08-13 00:02:00,
2013-08-12 17:07:00,78.6,57.9,30.00,North,-999,-999.0,-999.0,49,0.00,,,0.00,AD6XL-WX-0.1,2013-08-13 00:07:00,
2013-08-12 17:13:00,78.6,58.1,30.00,North,-999,-999.0,-999.0,49,0.00,,,0.00,AD6XL-WX-0.1,2013-08-13 00:13:00,
2013-08-12 17:18:00,78.5,58.0,30.00,North,-999,-999.0,-999.0,49,0.00,,,0.00,AD6XL-WX-0.1,2013-08-13 00:18:00,
2013-08-12 17:23:00,78.2,57.6,30.00,North,-999,-999.0,-999.0,49,0.00,,,0.00,AD6XL-WX-0.1,2013-08-13 00:23:00,
2013-08-12 17:28:00,78.0,57.7,30.00,North,-999,-999.0,-999.0,49,0.00,,,0.00,AD6XL-WX-0.1,2013-08-13 00:28:00,
2013-08-12 17:33:00,77.8,57.6,30.00,North,-999,-999.0,-999.0,49,0.00,,,0.00,AD6XL-WX-0.1,2013-08-13 00:33:00,
2013-08-12 17:38:00,77.7,57.5,30.00,North,-999,-999.0,-999.0,49,0.00,,,0.00,AD6XL-WX-0.1,2013-08-13 00:38:00,
2013-08-12 17:43:00,77.5,57.1,30.00,North,-999,-999.0,-999.0,49,0.00,,,0.00,AD6XL-WX-0.1,2013-08-13 00:43:00,
2013-08-12 17:48:00,77.3,57.0,30.00,North,-999,-999.0,-999.0,49,0.00,,,0.00,AD6XL-WX-0.1,2013-08-13 00:48:00,
2013-08-12 17:53:00,77.2,57.2,30.00,North,-999,-999.0,-999.0,50,0.00,,,0.00,AD6XL-WX-0.1,2013-08-13 00:53:00,
2013-08-12 17:58:00,77.0,57.4,29.99,North,-999,-999.0,-999.0,50,0.00,,,0.00,AD6XL-WX-0.1,2013-08-13 00:58:00,
2013-08-12 18:04:00,76.8,57.5,29.99,North,-999,-999.0,-999.0,51,0.00,,,0.00,AD6XL-WX-0.1,2013-08-13 01:04:00,
2013-08-12 18:09:00,76.7,57.6,29.99,North,-999,-999.0,-999.0,51,0.00,,,0.00,AD6XL-WX-0.1,2013-08-13 01:09:00,
2013-08-12 18:14:00,76.5,57.4,29.99,North,-999,-999.0,-999.0,51,0.00,,,0.00,AD6XL-WX-0.1,2013-08-13 01:14:00,
2013-08-12 18:19:00,76.5,57.1,29.99,North,-999,-999.0,-999.0,51,0.00,,,0.00,AD6XL-WX-0.1,2013-08-13 01:19:00,
2013-08-12 18:24:00,76.5,56.8,29.99,North,-999,-999.0,-999.0,50,0.00,,,0.00,AD6XL-WX-0.1,2013-08-13 01:24:00,
2013-08-12 18:29:00,76.5,57.0,29.99,North,-999,-999.0,-999.0,51,0.00,,,0.00,AD6XL-WX-0.1,2013-08-13 01:29:00,
2013-08-12 18:34:00,76.3,56.4,29.99,North,-999,-999.0,-999.0,50,0.00,,,0.00,AD6XL-WX-0.1,2013-08-13 01:34:00,
2013-08-12 18:39:00,76.3,55.1,29.99,North,-999,-999.0,-999.0,48,0.00,,,0.00,AD6XL-WX-0.1,2013-08-13 01:39:00,
2013-08-12 18:44:00,76.1,54.5,29.99,North,-999,-999.0,-999.0,47,0.00,,,0.00,AD6XL-WX-0.1,2013-08-13 01:44:00,
2013-08-12 18:49:00,75.9,54.5,29.99,North,-999,-999.0,-999.0,47,0.00,,,0.00,AD6XL-WX-0.1,2013-08-13 01:49:00,
2013-08-12 18:55:00,75.9,54.3,29.99,North,-999,-999.0,-999.0,47,0.00,,,0.00,AD6XL-WX-0.1,2013-08-13 01:55:00,
2013-08-12 19:00:00,75.9,54.3,29.99,North,-999,-999.0,-999.0,47,0.00,,,0.00,AD6XL-WX-0.1,2013-08-13 02:00:00,
2013-08-12 19:05:00,75.7,54.1,29.99,North,-999,-999.0,-999.0,47,0.00,,,0.00,AD6XL-WX-0.1,2013-08-13 02:05:00,
2013-08-12 19:10:00,75.5,54.1,29.99,North,-999,-999.0,-999.0,47,0.00,,,0.00,AD6XL-WX-0.1,2013-08-13 02:10:00,
2013-08-12 19:15:00,75.3,54.2,30.00,North,-999,-999.0,-999.0,47,0.00,,,0.00,AD6XL-WX-0.1,2013-08-13 02:15:00,
2013-08-12 19:20:00,75.1,54.1,30.00,North,-999,-999.0,-999.0,48,0.00,,,0.00,AD6XL-WX-0.1,2013-08-13 02:20:00,
2013-08-12 19:25:00,74.8,54.1,30.00,North,-999,-999.0,-999.0,48,0.00,,,0.00,AD6XL-WX-0.1,2013-08-13 02:25:00,
2013-08-12 19:30:00,74.6,54.1,30.00,North,-999,-999.0,-999.0,48,0.00,,,0.00,AD6XL-WX-0.1,2013-08-13 02:30:00,
2013-08-12 19:35:00,74.4,54.2,30.00,North,-999,-999.0,-999.0,49,0.00,,,0.00,AD6XL-WX-0.1,2013-08-13 02:35:00,
2013-08-12 19:40:00,74.1,54.1,30.00,North,-999,-999.0,-999.0,49,0.00,,,0.00,AD6XL-WX-0.1,2013-08-13 02:40:00,
2013-08-12 19:45:00,73.9,54.1,30.01,North,-999,-999.0,-999.0,50,0.00,,,0.00,AD6XL-WX-0.1,2013-08-13 02:45:00,
2013-08-12 19:51:00,73.6,54.1,30.01,North,-999,-999.0,-999.0,50,0.00,,,0.00,AD6XL-WX-0.1,2013-08-13 02:51:00,
2013-08-12 19:56:00,73.4,54.1,30.01,North,-999,-999.0,-999.0,50,0.00,,,0.00,AD6XL-WX-0.1,2013-08-13 02:56:00,
2013-08-12 20:01:00,73.0,54.0,30.01,North,-999,-999.0,-999.0,51,0.00,,,0.00,AD6XL-WX-0.1,2013-08-13 03:01:00,
2013-08-12 20:06:00,72.6,54.1,30.01,North,-999,-999.0,-999.0,52,0.00,,,0.00,AD6XL-WX-0.1,2013-08-13 03:06:00,
2013-08-12 20:11:00,72.1,54.3,30.01,North,-999,-999.0,-999.0,53,0.00,,,0.00,AD6XL-WX-0.1,2013-08-13 03:11:00,
2013-08-12 20:16:00,71.8,54.2,30.02,North,-999,-999.0,-999.0,53,0.00,,,0.00,AD6XL-WX-0.1,2013-08-13 03:16:00,
2013-08-12 20:21:00,71.5,54.2,30.02,North,-999,-999.0,-999.0,54,0.00,,,0.00,AD6XL-WX-0.1,2013-08-13 03:21:00,
2013-08-12 20:26:00,71.1,54.1,30.02,North,-999,-999.0,-999.0,55,0.00,,,0.00,AD6XL-WX-0.1,2013-08-13 03:26:00,
2013-08-12 20:31:00,70.6,54.1,30.02,North,-999,-999.0,-999.0,55,0.00,,,0.00,AD6XL-WX-0.1,2013-08-13 03:31:00,
2013-08-12 20:36:00,70.1,54.1,30.02,North,-999,-999.0,-999.0,56,0.00,,,0.00,AD6XL-WX-0.1,2013-08-13 03:36:00,
2013-08-12 20:42:00,69.4,54.3,30.02,North,-999,-999.0,-999.0,58,0.00,,,0.00,AD6XL-WX-0.1,2013-08-13 03:42:00,
2013-08-12 20:47:00,68.9,54.5,30.02,North,-999,-999.0,-999.0,60,0.00,,,0.00,AD6XL-WX-0.1,2013-08-13 03:47:00,
2013-08-12 20:53:00,68.3,54.1,30.03,North,-999,-999.0,-999.0,60,0.00,,,0.00,AD6XL-WX-0.1,2013-08-13 03:53:00,
2013-08-12 20:58:00,68.0,54.0,30.03,North,-999,-999.0,-999.0,61,0.00,,,0.00,AD6XL-WX-0.1,2013-08-13 03:58:00,
2013-08-12 21:01:00,67.7,54.0,30.03,North,-999,-999.0,-999.0,61,0.00,,,0.00,AD6XL-WX-0.1,2013-08-13 04:01:00,
2013-08-12 21:06:00,67.3,54.1,30.03,North,-999,-999.0,-999.0,62,0.00,,,0.00,AD6XL-WX-0.1,2013-08-13 04:06:00,
2013-08-12 21:11:00,66.9,54.1,30.04,North,-999,-999.0,-999.0,63,0.00,,,0.00,AD6XL-WX-0.1,2013-08-13 04:11:00,
2013-08-12 21:17:00,66.4,54.0,30.04,North,-999,-999.0,-999.0,64,0.00,,,0.00,AD6XL-WX-0.1,2013-08-13 04:17:00,
2013-08-12 21:22:00,66.1,53.8,30.04,North,-999,-999.0,-999.0,64,0.00,,,0.00,AD6XL-WX-0.1,2013-08-13 04:22:00,
2013-08-12 21:27:00,65.8,53.7,30.04,North,-999,-999.0,-999.0,64,0.00,,,0.00,AD6XL-WX-0.1,2013-08-13 04:27:00,
2013-08-12 21:32:00,65.6,53.7,30.04,North,-999,-999.0,-999.0,65,0.00,,,0.00,AD6XL-WX-0.1,2013-08-13 04:32:00,
2013-08-12 21:37:00,65.3,53.6,30.04,North,-999,-999.0,-999.0,65,0.00,,,0.00,AD6XL-WX-0.1,2013-08-13 04:37:00,
2013-08-12 21:42:00,65.0,53.4,30.04,North,-999,-999.0,-999.0,66,0.00,,,0.00,AD6XL-WX-0.1,2013-08-13 04:42:00,
2013-08-12 21:47:00,64.8,53.3,30.04,North,-999,-999.0,-999.0,66,0.00,,,0.00,AD6XL-WX-0.1,2013-08-13 04:47:00,
2013-08-12 21:52:00,64.6,53.2,30.04,North,-999,-999.0,-999.0,66,0.00,,,0.00,AD6XL-WX-0.1,2013-08-13 04:52:00,
2013-08-12 21:57:00,64.3,53.2,30.04,North,-999,-999.0,-999.0,67,0.00,,,0.00,AD6XL-WX-0.1,2013-08-13 04:57:00,
2013-08-12 22:02:00,64.1,53.1,30.04,North,-999,-999.0,-999.0,67,0.00,,,0.00,AD6XL-WX-0.1,2013-08-13 05:02:00,
2013-08-12 22:08:00,63.9,52.8,30.04,North,-999,-999.0,-999.0,67,0.00,,,0.00,AD6XL-WX-0.1,2013-08-13 05:08:00,
2013-08-12 22:13:00,63.8,52.7,30.04,North,-999,-999.0,-999.0,67,0.00,,,0.00,AD6XL-WX-0.1,2013-08-13 05:13:00,
2013-08-12 22:18:00,63.6,52.7,30.04,North,-999,-999.0,-999.0,67,0.00,,,0.00,AD6XL-WX-0.1,2013-08-13 05:18:00,
2013-08-12 22:23:00,63.4,52.7,30.04,North,-999,-999.0,-999.0,68,0.00,,,0.00,AD6XL-WX-0.1,2013-08-13 05:23:00,
2013-08-12 22:28:00,63.2,52.6,30.04,North,-999,-999.0,-999.0,68,0.00,,,0.00,AD6XL-WX-0.1,2013-08-13 05:28:00,
2013-08-12 22:33:00,62.9,52.6,30.04,North,-999,-999.0,-999.0,68,0.00,,,0.00,AD6XL-WX-0.1,2013-08-13 05:33:00,
2013-08-12 22:38:00,62.8,52.6,30.04,North,-999,-999.0,-999.0,69,0.00,,,0.00,AD6XL-WX-0.1,2013-08-13 05:38:00,
2013-08-12 22:43:00,62.5,52.6,30.04,North,-999,-999.0,-999.0,69,0.00,,,0.00,AD6XL-WX-0.1,2013-08-13 05:43:00,
2013-08-12 22:48:00,62.2,52.5,30.04,North,-999,-999.0,-999.0,70,0.00,,,0.00,AD6XL-WX-0.1,2013-08-13 05:48:00,
2013-08-12 22:53:00,61.9,52.4,30.04,North,-999,-999.0,-999.0,71,0.00,,,0.00,AD6XL-WX-0.1,2013-08-13 05:53:00,
2013-08-12 22:58:00,61.7,52.3,30.04,North,-999,-999.0,-999.0,71,0.00,,,0.00,AD6XL-WX-0.1,2013-08-13 05:58:00,
2013-08-12 23:04:00,61.5,52.3,30.04,North,-999,-999.0,-999.0,71,0.00,,,0.00,AD6XL-WX-0.1,2013-08-13 06:04:00,
2013-08-12 23:09:00,61.2,52.2,30.04,North,-999,-999.0,-999.0,72,0.00,,,0.00,AD6XL-WX-0.1,2013-08-13 06:09:00,
2013-08-12 23:14:00,61.1,52.2,30.04,North,-999,-999.0,-999.0,72,0.00,,,0.00,AD6XL-WX-0.1,2013-08-13 06:14:00,
2013-08-12 23:19:00,60.9,52.1,30.04,North,-999,-999.0,-999.0,72,0.00,,,0.00,AD6XL-WX-0.1,2013-08-13 06:19:00,
2013-08-12 23:24:00,60.6,52.0,30.04,North,-999,-999.0,-999.0,73,0.00,,,0.00,AD6XL-WX-0.1,2013-08-13 06:24:00,
2013-08-12 23:29:00,60.3,51.9,30.04,North,-999,-999.0,-999.0,73,0.00,,,0.00,AD6XL-WX-0.1,2013-08-13 06:29:00,
2013-08-12 23:34:00,60.0,51.8,30.05,North,-999,-999.0,-999.0,74,0.00,,,0.00,AD6XL-WX-0.1,2013-08-13 06:34:00,
2013-08-12 23:39:00,59.7,51.6,30.05,North,-999,-999.0,-999.0,74,0.00,,,0.00,AD6XL-WX-0.1,2013-08-13 06:39:00,
2013-08-12 23:44:00,59.4,51.6,30.05,North,-999,-999.0,-999.0,75,0.00,,,0.00,AD6XL-WX-0.1,2013-08-13 06:44:00,
2013-08-12 23:49:00,59.1,51.6,30.05,North,-999,-999.0,-999.0,76,0.00,,,0.00,AD6XL-WX-0.1,2013-08-13 06:49:00,
2013-08-12 23:55:00,58.8,51.4,30.05,North,-999,-999.0,-999.0,76,0.00,,,0.00,AD6XL-WX-0.1,2013-08-13 06:55:00,